Location: Asheville, NC
(35.6000°N, 82.5500°W)
Time: 16:30:47

CUTE-I - Pass Details

Date: 05 January 2018
Orbit: 812 x 824 km, 98.7° (Epoch: 21 March)

Event Time Altitude Azimuth Distance (km) Brightness Sun altitude
Rises 05:54:30 0° 28° (NNE) 3,336 ? -20.9°
Reaches altitude 10° 05:57:19 10° 43° (NE) 2,400 ? -20.4°
Maximum altitude 06:01:31 24° 95° (E) 1,644 ? -19.6°
Drops below altitude 10° 06:05:41 10° 148° (SSE) 2,391 ? -18.7°
Sets 06:08:28 0° 162° (SSE) 3,320 ? -18.2°
